CAPE
0 88 403 263 46 1 1 1 1 2 0 0 0 0 0 0 0 0 1 1 0 0 0 0 0 0 0 0 0 1 4 0 0 0 0 0 0 0 0 0 0 2 1
3 2 123 100 9 5 1 1 1 1 1 1 0 0 0 0 0 0 0 0 0 0 0 0 0 0 0 0 0 0 0 0 0 0 0 0 0 0 0 0 0 0 1
7 8 17 13 3 1 1 3 1 0 1 10 12 3 1 4 3 0 0 0 0 0 0 0 0 0 0 0 0 0 0 0 0 0 0 0 0 0 0 0 0 0 0
3 0 4 4 5 5 0 0 1 0 1 0 2 34 0 0 0 0 0 0 0 0 0 0 0 0 0 0 0 0 0 0 0 0 0 0 0 0 0 0 0 0 0
0 0 1 0 1 2 4 3 1 2 1 0 0 21 36 12 0 0 0 0 0 0 0 0 0 0 0 0 0 0 0 0 0 0 0 0 0 0 0 0 0 0 0
0 0 0 0 0 0 0 0 6 5 1 1 1 0 0 0 0 0 0 0 0 0 0 0 0 0 0 0 0 0 0 0 0 0 0 0 0 0 0 0 0 0 0
0 0 0 0 0 0 0 0 0 0 0 2 0 1 1 0 0 0 0 0 0 0 0 0 0 0 0 0 0 0 0 0 0 0 0 0 0 0 0 0 0 0 0
0 0 0 0 0 0 0 0 0 0 0 0 1 7 2 2 1 0 0 0 0 0 0 0 0 0 0 0 0 0 0 0 0 0 0 0 0 0 0 0 0 0 0
0 0 0 0 0 0 0 0 0 0 0 0 0 0 0 0 10 6 1 0 0 1 0 0 0 0 0 0 0 0 0 0 0 0 0 0 0 0 0 0 0 0 0
0 0 0 0 0 0 0 0 0 0 0 0 0 0 0 0 0 2 6 5 1 0 0 0 0 0 0 0 0 0 0 0 0 0 0 0 0 0 0 0 0 0 0
0 0 0 0 0 0 0 0 0 0 0 0 0 0 0 0 0 0 0 0 0 1 2 0 0 0 0 0 0 0 0 0 0 0 0 0 0 0 0 0 0 0 0
0 0 0 0 0 0 0 0 0 0 0 0 0 0 0 0 0 0 0 0 0 0 0 1 2 0 0 0 0 0 0 0 0 0 0 0 0 0 0 0 0 0 0
0 0 0 0 0 0 0 0 0 0 0 0 0 0 0 0 0 0 0 0 0 0 0 0 0 3 2 0 0 0 0 0 0 0 0 0 0 0 0 0 0 0 0
0 0 0 0 0 0 0 0 0 0 0 0 0 0 0 0 0 0 0 0 0 0 0 0 0 0 0 14 1 0 0 0 0 0 0 0 0 0 0 0 0 0 0
0 0 0 0 0 0 0 0 0 0 0 0 0 0 0 0 0 0 0 0 0 0 0 0 0 0 0 0 9 3 0 0 0 0 0 0 0 0 0 0 0 0 0
0 0 0 0 0 0 0 0 0 0 0 0 0 0 0 0 0 0 0 0 0 0 0 0 0 0 0 0 0 8 22 0 0 0 0 0 0 0 0 0 0 0 0
0 0 0 0 0 0 0 0 0 0 0 0 0 0 0 0 0 0 0 0 0 0 0 0 0 0 0 0 7 13 0 14 12 0 0 0 0 0 0 0 0 0 0
0 0 0 0 0 0 0 0 0 0 0 0 0 0 0 0 0 0 0 0 0 0 0 0 0 0 0 1 3 5 0 1 2 12 0 0 0 0 0 0 0 0 0
0 0 0 0 0 0 0 0 0 0 0 0 0 0 0 0 0 0 0 0 0 0 0 0 0 0 0 0 2 1 0 2 6 16 5 0 0 0 0 0 0 0 0
0 0 0 0 0 0 0 0 0 0 0 0 0 0 0 0 0 0 0 0 0 2 1 0 0 0 0 1 8 8 0 2 0 9 32 0 0 0 1 0 0 0 0
0 0 0 0 0 0 0 0 0 0 0 0 0 0 0 0 0 0 0 0 0 0 0 0 0 3 4 1 12 17 2 1 5 2 19 17 2 3 3 4 0 0 0
0 0 0 0 0 0 0 0 0 0 0 0 0 0 0 0 0 0 0 0 0 0 0 0 0 0 0 3 15 22 39 33 19 18 19 48 0 2 2 5 4 3 3
0 0 0 0 0 0 0 0 0 0 0 0 0 0 0 0 0 0 0 3 0 0 4 2 0 0 1 0 9 18 14 26 44 31 39 63 2 0 1 3 6 11 0
0 0 0 0 0 0 0 0 0 0 0 0 0 0 0 0 0 0 2 3 1 4 2 0 2 2 0 0 0 0 3 16 31 29 6 15 41 0 0 1 2 0 0
0 0 0 0 0 0 0 0 0 0 0 0 0 0 0 0 0 0 1 4 7 6 1 4 2 1 2 3 35 67 27 24 21 46 7 7 11 0 0 0 0 0 0
0 0 0 0 0 0 0 0 0 0 0 0 1 0 0 0 0 0 0 6 14 17 17 13 5 2 20 32 65 64 45 40 33 17 0 0 0 0 0 0 0 0 2
CIN
-0 -32 -0 -4 -93 -0 -0 -0 -0 -0 -0 -0 -0 -0 -0 -0 -0 -0 -36 -19 -0 -0 -0 -0 -0 -8 -0 -0 -0 -32 -29 -0 -0 -0 -0 -0 -0 -0 -0 -24 -0 -26 -36
-12 -9 -1 -9 -53 -28 -0 -0 -0 -0 -0 -2 -0 -0 -14 -12 -0 -0 -2 -0 -0 -0 -0 -0 -0 -0 -0 -0 -0 -0 -0 -0 -0 -0 -0 -0 -0 -0 -0 -0 -0 -24 -28
-0 -0 -7 -0 -0 -0 -0 -0 -0 -0 -12 -20 -41 -38 -13 -30 -15 -0 -0 -0 -0 -0 -0 -0 -0 -0 -0 -0 -0 -0 -0 -0 -0 -0 -0 -0 -0 -0 -0 -0 -0 -0 -0
-0 -0 -0 -0 -0 -0 -6 -0 -0 -0 -0 -0 -16 -13 -0 -0 -0 -0 -0 -0 -0 -0 -0 -0 -0 -0 -0 -0 -0 -0 -0 -0 -0 -0 -0 -0 -0 -0 -0 -0 -0 -0 -0
-0 -0 -0 -0 -0 -0 -0 -0 -0 -0 -0 -0 -0 -22 -8 -9 -0 -0 -0 -0 -0 -0 -0 -0 -0 -0 -0 -0 -0 -0 -0 -0 -0 -0 -0 -0 -0 -0 -0 -0 -0 -0 -0
-0 -0 -0 -0 -0 -0 -0 -0 -0 -0 -0 -0 -0 -0 -0 -0 -0 -0 -0 -0 -0 -0 -0 -0 -0 -0 -0 -0 -0 -0 -0 -0 -0 -0 -0 -0 -0 -0 -0 -0 -0 -0 -0
-0 -0 -0 -0 -0 -0 -0 -0 -0 -0 -0 -0 -0 -0 -0 -0 -0 -0 -0 -0 -0 -0 -0 -0 -0 -0 -0 -0 -0 -0 -0 -0 -0 -0 -0 -0 -0 -0 -0 -0 -0 -0 -0
-0 -0 -0 -0 -0 -0 -0 -0 -0 -0 -0 -0 -0 -0 -0 -0 -0 -0 -0 -0 -0 -0 -0 -0 -0 -0 -0 -0 -0 -0 -0 -0 -0 -0 -0 -0 -0 -0 -0 -0 -0 -0 -0
-0 -0 -0 -0 -0 -0 -0 -0 -0 -0 -0 -0 -0 -0 -0 -0 -0 -0 -0 -0 -37 -11 -13 -0 -0 -0 -0 -0 -0 -0 -0 -0 -0 -0 -0 -0 -0 -0 -0 -0 -0 -0 -0
-0 -0 -0 -0 -0 -0 -0 -0 -0 -0 -0 -0 -0 -0 -0 -0 -0 -0 -1 -0 -0 -0 -0 -0 -0 -0 -0 -0 -0 -0 -0 -0 -0 -0 -0 -0 -0 -0 -0 -0 -0 -0 -0
-0 -0 -0 -0 -0 -0 -0 -0 -0 -0 -0 -0 -0 -0 -0 -0 -0 -0 -0 -0 -0 -4 -2 -3 -0 -0 -0 -0 -0 -0 -0 -0 -0 -0 -0 -0 -0 -0 -0 -0 -0 -0 -0
-0 -0 -0 -0 -0 -0 -0 -0 -0 -0 -0 -0 -0 -0 -0 -0 -0 -0 -0 -0 -0 -0 -0 -0 -1 -0 -0 -0 -0 -0 -0 -0 -0 -0 -0 -0 -0 -0 -0 -0 -0 -0 -0
-0 -0 -0 -0 -0 -0 -0 -0 -0 -0 -0 -0 -0 -0 -0 -0 -0 -0 -0 -0 -0 -0 -0 -0 -0 -0 -6 -0 -0 -0 -0 -0 -0 -0 -0 -0 -0 -0 -0 -0 -0 -0 -0
-0 -0 -0 -0 -0 -0 -0 -0 -0 -0 -0 -0 -0 -0 -0 -0 -0 -0 -0 -0 -0 -0 -0 -0 -0 -0 -0 -1 -11 -0 -0 -0 -0 -0 -0 -0 -0 -0 -0 -0 -0 -0 -0
-0 -0 -0 -0 -0 -0 -0 -0 -0 -0 -0 -0 -0 -0 -0 -0 -0 -0 -0 -0 -0 -0 -0 -0 -0 -0 -0 -0 -2 -10 -0 -0 -0 -0 -0 -0 -0 -0 -0 -0 -0 -0 -0
-0 -0 -0 -0 -0 -0 -0 -0 -0 -0 -0 -0 -0 -0 -0 -0 -0 -0 -0 -0 -0 -0 -0 -0 -0 -0 -0 -0 -0 -3 -0 -1 -0 -0 -0 -0 -0 -0 -0 -0 -0 -0 -0
-0 -0 -0 -0 -0 -0 -0 -0 -0 -0 -0 -0 -0 -0 -0 -0 -0 -0 -0 -0 -0 -0 -0 -0 -0 -0 -0 -0 -0 -0 -0 -0 -1 -0 -0 -0 -0 -0 -0 -0 -0 -0 -0
-0 -0 -0 -0 -0 -0 -0 -0 -0 -0 -0 -0 -0 -0 -0 -0 -0 -0 -0 -0 -0 -0 -0 -0 -0 -0 -0 -0 -0 -0 -0 -0 -0 -0 -0 -0 -0 -0 -0 -0 -0 -0 -0
-0 -0 -0 -0 -0 -0 -0 -0 -0 -0 -0 -0 -0 -0 -0 -0 -0 -0 -0 -0 -0 -0 -0 -0 -0 -0 -0 -0 -0 -0 -0 -0 -0 -0 -2 -0 -0 -0 -0 -0 -0 -0 -0
-0 -0 -0 -0 -0 -0 -0 -0 -0 -0 -0 -0 -0 -0 -0 -0 -0 -0 -0 -0 -0 -0 -1 -0 -0 -0 -0 -0 -0 -0 -1 -0 -0 -0 -0 -0 -0 -0 -0 -0 -0 -0 -0
-0 -0 -0 -0 -0 -0 -0 -0 -0 -0 -0 -0 -0 -0 -0 -0 -0 -0 -0 -0 -0 -0 -0 -0 -0 -1 -2 -1 -0 -0 -0 -0 -0 -0 -0 -5 -0 -0 -0 -0 -0 -0 -0
-0 -0 -0 -0 -0 -0 -0 -0 -0 -0 -0 -0 -0 -0 -0 -0 -0 -0 -0 -0 -0 -0 -0 -0 -0 -0 -0 -0 -0 -0 -0 -0 -0 -0 -0 -0 -4 -0 -0 -0 -0 -0 -0
-0 -0 -0 -0 -0 -0 -0 -0 -0 -0 -0 -0 -0 -0 -0 -0 -0 -0 -0 -0 -0 -1 -0 -0 -0 -0 -1 -1 -0 -0 -0 -2 -0 -0 -0 -0 -2 -0 -0 -0 -0 -0 -0
-0 -0 -0 -0 -0 -0 -0 -0 -0 -0 -0 -0 -0 -0 -0 -0 -0 -0 -0 -0 -0 -0 -1 -1 -1 -1 -4 -0 -0 -1 -1 -0 -0 -0 -3 -1 -0 -0 -0 -0 -0 -0 -0
-0 -0 -0 -0 -0 -0 -0 -0 -0 -0 -0 -0 -0 -0 -0 -0 -0 -1 -1 -0 -0 -0 -0 -0 -1 -0 -1 -1 -0 -0 -0 -0 -0 -0 -0 -0 -0 -0 -0 -0 -0 -0 -0
-0 -0 -0 -0 -0 -0 -0 -0 -0 -0 -0 -0 -0 -0 -0 -0 -0 -1 -0 -0 -0 -0 -0 -0 -0 -0 -0 -0 -0 -0 -0 -0 -0 -0 -0 -0 -0 -0 -0 -0 -0 -0 -0
Wind_Speed
3 3 6 8 7 10 10 9 8 5 7 5 7 6 4 3 3 3 5 5 4 5 4 2 1 3 4 4 4 3 4 2 4 4 3 3 4 3 2 2 4 6 6
14 5 6 10 9 10 9 10 10 11 8 3 3 3 4 2 3 3 4 5 5 5 4 3 2 3 2 4 4 4 3 2 4 4 4 1 4 3 4 2 2 5 4
23 19 15 11 10 10 12 10 8 10 8 4 4 2 4 2 2 2 2 3 5 6 6 6 4 5 3 4 3 3 6 3 2 7 5 3 4 3 3 5 3 3 3
23 25 22 22 20 9 8 7 7 3 3 6 2 2 2 3 2 2 2 3 5 5 6 5 6 6 4 5 4 4 4 5 5 1 5 2 4 4 1 2 4 4 5
19 20 21 21 20 22 17 4 6 6 3 4 4 1 3 3 3 2 6 5 5 5 6 6 6 6 5 6 6 5 5 4 5 4 2 2 2 2 3 3 4 3 5
16 18 18 19 20 19 19 19 20 10 6 7 5 6 6 5 3 2 2 2 3 4 6 6 5 5 5 6 6 6 7 7 5 6 5 5 4 4 4 2 3 9 5
14 17 19 17 19 20 17 16 18 18 18 13 5 5 4 4 4 5 2 1 2 2 5 5 6 4 6 6 6 6 6 8 8 10 7 7 7 4 5 3 4 3 4
12 15 16 16 17 17 18 17 17 17 16 15 14 12 7 2 2 2 3 4 4 4 3 6 6 7 7 6 6 4 6 6 8 9 9 7 7 7 5 5 6 2 3
10 12 13 13 14 16 16 16 16 15 15 14 12 13 13 11 7 5 2 2 3 4 6 7 4 6 6 7 7 7 8 8 7 9 9 9 6 6 6 5 5 6 5
10 11 12 12 10 11 11 14 15 15 14 14 12 11 12 11 11 10 7 4 2 3 4 5 5 7 5 6 6 6 7 9 8 8 10 10 9 8 6 7 7 6 8
9 9 9 10 10 11 13 12 13 15 14 14 13 11 11 13 12 10 10 10 9 4 5 6 6 6 7 7 6 7 7 9 10 9 10 13 12 9 9 6 7 7 5
8 8 10 11 12 12 12 14 15 12 13 12 11 11 11 12 12 12 13 12 12 12 12 8 7 8 8 9 8 9 9 10 11 12 13 15 10 13 12 9 11 11 10
11 11 11 11 11 12 12 12 11 10 11 11 11 11 11 11 11 11 12 13 13 12 13 13 13 10 8 7 9 10 10 12 13 10 9 12 11 12 11 11 10 10 9
9 9 9 10 9 9 10 11 11 12 11 10 9 9 10 10 10 10 10 11 11 11 11 12 14 13 13 9 9 9 10 11 11 12 13 14 14 13 12 9 10 7 8
8 7 7 7 8 8 7 8 8 10 10 10 9 11 11 11 11 12 12 11 11 10 11 12 12 12 12 10 11 8 10 11 12 11 12 13 15 19 16 9 12 11 10
7 7 7 7 7 7 7 9 8 8 7 7 6 9 10 11 10 11 12 12 13 13 13 13 13 14 10 19 22 17 12 11 12 12 11 13 16 18 23 23 21 16 14
7 7 7 7 7 7 7 6 7 8 7 8 7 9 9 10 10 11 12 12 12 12 11 12 13 15 14 23 24 24 14 15 13 13 12 10 9 14 13 19 23 23 24
6 6 5 6 6 6 6 7 9 10 10 8 9 10 11 12 13 12 12 12 12 13 12 13 13 14 13 25 27 28 18 16 17 15 14 14 13 13 13 12 12 15 16
5 5 5 6 6 7 8 9 9 9 11 11 13 13 12 13 13 13 12 12 12 12 11 13 14 14 14 24 26 24 16 17 17 16 14 14 14 16 21 12 13 13 12
4 5 6 6 6 6 7 8 10 10 11 12 13 13 14 14 15 14 14 12 12 12 11 14 15 20 16 22 27 24 14 17 14 15 15 21 18 19 23 15 13 13 13
7 7 6 6 6 8 8 10 10 11 12 13 13 14 14 14 15 16 13 14 14 14 13 15 13 14 14 15 26 27 16 13 14 14 13 9 21 23 23 24 14 16 12
6 6 6 6 6 7 7 10 11 12 13 13 13 14 14 13 13 16 13 14 13 15 15 15 14 11 13 21 21 27 29 25 16 16 13 14 19 22 25 21 24 24 18
6 5 6 8 6 6 6 10 11 12 13 13 13 13 14 13 13 14 15 13 13 12 14 13 14 14 11 12 26 29 29 30 20 14 18 26 20 24 23 27 25 23 11
8 7 9 9 10 7 8 8 11 12 12 13 12 12 13 15 12 11 11 11 12 11 12 12 13 14 14 13 13 12 13 21 19 18 14 16 19 22 17 15 17 11 11
6 6 7 9 10 10 11 10 11 11 12 12 11 12 11 13 13 11 11 12 12 14 15 14 14 14 15 14 24 22 15 14 15 17 10 10 10 10 9 8 10 10 11
6 7 7 9 10 11 11 12 11 10 11 12 10 10 11 10 11 12 13 19 25 28 29 30 24 15 27 34 33 31 32 30 28 15 9 8 9 10 10 10 10 10 15
Wind_Direction
256 340 53 57 68 81 75 57 92 76 104 120 117 117 131 127 126 137 160 162 174 162 163 166 152 135 147 193 205 161 154 100 124 99 58 22 26 1 284 255 153 149 146
13 358 55 59 38 69 73 62 82 80 64 34 56 111 123 125 146 154 171 161 166 157 151 163 180 173 156 199 210 153 122 128 138 133 109 156 328 316 274 282 206 173 158
27 8 46 57 46 41 39 43 30 57 44 115 41 69 95 99 148 158 152 175 155 155 167 188 181 184 182 204 206 164 151 138 183 159 156 147 210 157 246 225 210 187 182
24 26 25 37 31 41 42 39 44 86 69 73 91 141 105 132 187 140 158 162 161 173 182 192 185 183 185 202 199 184 161 137 186 239 252 195 145 176 160 263 216 207 202
29 29 28 30 27 30 25 345 71 58 52 70 50 320 184 195 160 164 169 173 189 196 193 204 197 189 183 195 192 188 187 179 174 183 194 200 219 206 147 187 218 228 208
30 32 33 38 37 25 24 25 36 26 45 40 2 36 39 14 89 122 137 188 178 186 191 195 206 210 199 195 201 198 190 198 199 191 202 184 176 206 190 178 175 205 226
36 31 31 29 34 34 21 30 33 25 30 29 20 22 5 16 9 359 19 251 193 184 207 191 199 205 209 204 200 202 203 200 208 212 207 211 207 182 193 183 198 169 213
36 46 33 29 28 24 24 23 29 27 23 23 19 25 12 329 299 342 342 3 5 340 230 200 199 207 205 207 205 207 212 208 213 218 219 211 210 205 197 195 180 222 190
34 41 54 34 30 26 19 19 23 25 14 14 17 18 13 12 9 12 334 351 357 335 337 335 254 228 221 211 202 208 216 220 214 220 222 223 219 208 207 194 180 187 187
29 26 36 43 42 37 19 18 22 21 13 8 11 16 8 7 5 10 0 4 306 284 284 283 291 303 263 231 217 214 218 220 225 219 218 220 225 223 211 207 210 204 219
27 27 35 37 38 31 26 21 23 16 9 6 4 7 6 4 4 4 2 358 351 311 247 248 249 246 255 260 265 247 222 217 226 225 222 227 221 227 228 204 206 209 185
34 29 29 22 25 22 20 17 21 14 9 3 360 1 6 4 3 357 354 351 352 348 340 322 247 242 240 237 229 238 246 245 233 236 238 233 224 223 226 219 214 218 217
24 21 27 25 21 16 14 16 11 7 2 2 358 3 6 2 356 351 348 348 347 342 335 333 327 310 253 239 235 237 240 236 237 236 233 243 232 233 225 223 222 214 212
36 23 14 13 20 17 10 2 1 2 356 355 353 358 360 356 350 345 341 337 333 328 330 326 320 317 314 281 240 230 231 235 235 236 233 237 238 233 222 215 220 191 191
35 23 18 12 5 1 2 3 359 353 351 343 348 358 352 347 346 343 339 336 333 330 324 321 313 314 311 309 298 262 248 242 244 240 235 238 235 234 230 217 216 208 203
23 16 15 8 2 353 346 357 348 340 340 334 347 350 346 340 338 336 335 332 330 329 325 320 313 312 307 305 307 305 275 254 246 244 237 234 232 233 232 226 227 217 211
16 11 8 356 349 343 347 347 333 326 336 326 353 343 339 335 333 330 329 326 322 316 314 314 312 309 307 310 308 305 299 291 261 247 245 239 233 228 229 232 231 225 220
6 358 348 342 332 326 342 332 335 334 338 334 348 340 336 333 328 326 325 320 320 318 314 310 305 303 304 307 307 304 300 287 279 258 241 234 231 222 221 223 222 224 221
351 345 340 328 319 329 337 334 333 334 334 338 339 336 332 328 325 324 323 317 316 313 309 303 300 294 293 297 297 298 291 281 278 272 245 230 232 221 219 219 221 219 217
339 333 327 327 317 330 330 331 328 333 332 335 330 328 326 327 324 320 322 316 308 302 300 297 295 294 292 293 296 294 288 281 279 272 259 232 226 224 215 213 214 209 205
345 340 342 323 330 335 330 330 329 329 329 326 324 324 323 324 321 318 318 314 314 310 306 303 299 296 286 295 300 294 287 278 276 273 267 240 228 222 219 213 207 212 190
340 339 325 319 327 322 331 327 326 325 324 323 320 321 322 324 319 313 313 312 313 311 310 309 306 303 300 298 297 300 293 278 272 269 266 261 219 222 221 218 214 212 192
329 330 326 311 322 322 332 322 320 324 319 319 319 318 318 316 310 315 311 311 313 306 310 311 305 303 301 300 298 295 296 289 282 273 266 254 219 222 225 223 217 204 178
329 332 322 324 318 321 325 311 317 317 317 314 316 313 316 313 318 307 303 308 307 305 305 301 300 302 300 297 293 287 290 284 284 278 274 264 249 219 219 217 213 198 172
316 314 316 307 314 324 319 315 318 317 315 312 310 308 314 310 308 302 307 302 299 300 304 302 297 299 297 293 293 290 289 284 277 279 267 267 234 216 209 202 194 182 170
313 310 306 316 312 311 309 310 310 316 313 308 308 310 310 304 307 304 307 299 303 306 305 304 304 300 298 300 300 297 290 288 287 275 259 256 232 217 209 197 185 173 174